Time,TemperatureF,DewpointF,PressureIn,WindDirection,WindDirectionDegrees,WindSpeedMPH,WindSpeedGustMPH,Humidity,HourlyPrecipIn,Conditions,Clouds,dailyrainin,SoftwareType,DateUTC
2013-04-02 00:00:00,32.3,2.6,30.09,NW,315,0.0,0.0,28,0.00,,,0.00,WUHU216HW,2013-04-02 04:00:00,
2013-04-02 00:05:00,32.3,2.6,30.09,WNW,293,0.0,0.0,28,0.00,,,0.00,WUHU216HW,2013-04-02 04:05:00,
2013-04-02 00:10:00,32.1,2.5,30.09,WNW,293,1.1,1.1,28,0.00,,,0.00,WUHU216HW,2013-04-02 04:10:00,
2013-04-02 00:15:00,32.1,2.5,30.09,NW,315,0.0,2.0,28,0.00,,,0.00,WUHU216HW,2013-04-02 04:15:00,
2013-04-02 00:20:00,31.8,2.2,30.09,NW,315,0.8,2.0,28,0.00,,,0.00,WUHU216HW,2013-04-02 04:20:00,
2013-04-02 00:25:00,31.8,3.0,30.09,NW,315,1.3,1.3,29,0.00,,,0.00,WUHU216HW,2013-04-02 04:25:00,
2013-04-02 00:30:00,31.4,1.8,30.09,NW,315,0.0,1.3,28,0.00,,,0.00,WUHU216HW,2013-04-02 04:30:00,
2013-04-02 00:35:00,31.4,1.8,30.09,NNW,338,0.0,0.8,28,0.00,,,0.00,WUHU216HW,2013-04-02 04:35:00,
2013-04-02 00:40:00,31.2,1.5,30.09,NW,315,1.1,1.1,28,0.00,,,0.00,WUHU216HW,2013-04-02 04:40:00,
2013-04-02 00:45:00,31.1,2.4,30.09,NW,315,0.0,2.0,29,0.00,,,0.00,WUHU216HW,2013-04-02 04:45:00,
2013-04-02 00:50:00,30.9,2.2,30.09,NW,315,0.0,2.0,29,0.00,,,0.00,WUHU216HW,2013-04-02 04:50:00,
2013-04-02 00:55:00,30.7,2.9,30.10,WNW,293,0.0,1.3,30,0.00,,,0.00,WUHU216HW,2013-04-02 04:55:00,
2013-04-02 01:00:00,30.5,2.8,30.10,WSW,248,4.2,4.2,30,0.00,,,0.00,WUHU216HW,2013-04-02 05:00:00,
2013-04-02 01:05:00,30.5,2.8,30.10,WNW,293,0.0,4.2,30,0.00,,,0.00,WUHU216HW,2013-04-02 05:05:00,
2013-04-02 01:10:00,30.3,2.6,30.10,WNW,293,0.0,2.0,30,0.00,,,0.00,WUHU216HW,2013-04-02 05:10:00,
2013-04-02 01:15:00,30.3,1.7,30.11,WNW,293,0.0,0.0,29,0.00,,,0.00,WUHU216HW,2013-04-02 05:15:00,
2013-04-02 01:20:00,30.2,2.4,30.11,WNW,293,0.0,0.0,30,0.00,,,0.00,WUHU216HW,2013-04-02 05:20:00,
2013-04-02 01:25:00,30.0,2.3,30.11,WSW,248,0.0,0.0,30,0.00,,,0.00,WUHU216HW,2013-04-02 05:25:00,
2013-04-02 01:30:00,29.8,2.1,30.10,NW,315,0.0,0.0,30,0.00,,,0.00,WUHU216HW,2013-04-02 05:30:00,
2013-04-02 01:35:00,29.6,1.9,30.11,NW,315,0.0,0.0,30,0.00,,,0.00,WUHU216HW,2013-04-02 05:35:00,
2013-04-02 01:40:00,29.6,1.9,30.11,North,0,0.0,2.6,31,0.00,,,0.00,WUHU216HW,2013-04-02 05:40:00,
2013-04-02 01:45:00,29.4,2.4,30.10,NW,315,0.0,2.6,31,0.00,,,0.00,WUHU216HW,2013-04-02 05:45:00,
2013-04-02 01:50:00,29.3,2.3,30.11,NW,315,0.0,0.0,31,0.00,,,0.00,WUHU216HW,2013-04-02 05:50:00,
2013-04-02 01:55:00,29.3,2.9,30.11,NW,315,0.6,0.6,32,0.00,,,0.00,WUHU216HW,2013-04-02 05:55:00,
2013-04-02 02:00:00,29.1,2.7,30.10,NNW,338,0.8,0.8,32,0.00,,,0.00,WUHU216HW,2013-04-02 06:00:00,
2013-04-02 02:05:00,28.9,2.6,30.11,NW,315,0.0,1.1,32,0.00,,,0.00,WUHU216HW,2013-04-02 06:05:00,
2013-04-02 02:10:00,28.9,2.4,30.11,West,270,0.0,1.1,32,0.00,,,0.00,WUHU216HW,2013-04-02 06:10:00,
2013-04-02 02:15:00,28.7,3.0,30.11,WNW,293,0.0,0.0,33,0.00,,,0.00,WUHU216HW,2013-04-02 06:15:00,
2013-04-02 02:20:00,28.7,2.4,30.11,WNW,293,0.0,0.0,32,0.00,,,0.00,WUHU216HW,2013-04-02 06:20:00,
2013-04-02 02:25:00,28.5,2.9,30.11,WNW,293,0.0,0.0,33,0.00,,,0.00,WUHU216HW,2013-04-02 06:25:00,
2013-04-02 02:30:00,28.5,2.9,30.12,WNW,293,0.6,0.6,33,0.00,,,0.00,WUHU216HW,2013-04-02 06:30:00,
2013-04-02 02:35:00,28.5,3.5,30.11,NNW,338,2.0,2.4,34,0.00,,,0.00,WUHU216HW,2013-04-02 06:35:00,
2013-04-02 02:40:00,28.0,3.8,30.11,WNW,293,0.0,3.5,35,0.00,,,0.00,WUHU216HW,2013-04-02 06:40:00,
2013-04-02 02:45:00,27.8,3.5,30.12,NNW,338,2.0,3.5,35,0.00,,,0.00,WUHU216HW,2013-04-02 06:45:00,
2013-04-02 02:50:00,27.8,3.5,30.12,NW,315,0.0,4.0,35,0.00,,,0.00,WUHU216HW,2013-04-02 06:50:00,
2013-04-02 02:55:00,27.6,3.3,30.12,NW,315,0.0,4.0,35,0.00,,,0.00,WUHU216HW,2013-04-02 06:55:00,
2013-04-02 03:00:00,27.5,3.2,30.11,NW,315,0.0,0.0,35,0.00,,,0.00,WUHU216HW,2013-04-02 07:00:00,
2013-04-02 03:05:00,27.5,3.8,30.12,WNW,293,0.0,0.0,36,0.00,,,0.00,WUHU216HW,2013-04-02 07:05:00,
2013-04-02 03:10:00,27.3,3.6,30.11,WNW,293,0.0,0.0,36,0.00,,,0.00,WUHU216HW,2013-04-02 07:10:00,
2013-04-02 03:15:00,27.1,3.5,30.11,NW,315,0.0,0.0,36,0.00,,,0.00,WUHU216HW,2013-04-02 07:15:00,
2013-04-02 03:20:00,26.9,3.3,30.12,NW,315,0.0,0.0,36,0.00,,,0.00,WUHU216HW,2013-04-02 07:20:00,
2013-04-02 03:25:00,26.9,3.3,30.12,NW,315,0.0,1.5,36,0.00,,,0.00,WUHU216HW,2013-04-02 07:25:00,
2013-04-02 03:30:00,26.7,2.5,30.12,WNW,293,0.0,1.5,35,0.00,,,0.00,WUHU216HW,2013-04-02 07:30:00,
2013-04-02 03:35:00,26.7,3.1,30.12,WNW,293,0.0,0.0,36,0.00,,,0.00,WUHU216HW,2013-04-02 07:35:00,
2013-04-02 03:40:00,26.6,2.3,30.12,NW,315,0.0,0.0,35,0.00,,,0.00,WUHU216HW,2013-04-02 07:40:00,
2013-04-02 03:45:00,26.4,3.0,30.12,NNW,338,0.0,1.1,36,0.00,,,0.00,WUHU216HW,2013-04-02 07:45:00,
2013-04-02 03:50:00,26.2,2.6,30.12,WNW,293,0.0,1.1,36,0.00,,,0.00,WUHU216HW,2013-04-02 07:50:00,
2013-04-02 03:55:00,26.2,2.6,30.12,NW,315,0.0,0.0,36,0.00,,,0.00,WUHU216HW,2013-04-02 07:55:00,
2013-04-02 04:00:00,26.0,2.5,30.12,NNW,338,1.5,1.5,36,0.00,,,0.00,WUHU216HW,2013-04-02 08:00:00,
2013-04-02 04:05:00,26.0,2.5,30.12,NW,315,0.0,1.5,36,0.00,,,0.00,WUHU216HW,2013-04-02 08:05:00,
2013-04-02 04:10:00,26.0,2.5,30.12,NNW,338,0.0,0.0,36,0.00,,,0.00,WUHU216HW,2013-04-02 08:10:00,
2013-04-02 04:15:00,25.8,2.3,30.12,NNW,338,0.0,0.0,36,0.00,,,0.00,WUHU216HW,2013-04-02 08:15:00,
2013-04-02 04:20:00,25.8,1.7,30.12,NW,315,0.0,0.0,35,0.00,,,0.00,WUHU216HW,2013-04-02 08:20:00,
2013-04-02 04:25:00,25.7,1.6,30.12,WNW,293,0.0,0.0,35,0.00,,,0.00,WUHU216HW,2013-04-02 08:25:00,
2013-04-02 04:30:00,25.7,1.6,30.12,WNW,293,0.0,0.0,35,0.00,,,0.00,WUHU216HW,2013-04-02 08:30:00,
2013-04-02 04:35:00,25.7,1.6,30.12,WNW,293,0.0,0.0,35,0.00,,,0.00,WUHU216HW,2013-04-02 08:35:00,
2013-04-02 04:40:00,25.5,0.8,30.12,WNW,293,0.0,0.0,34,0.00,,,0.00,WUHU216HW,2013-04-02 08:40:00,
2013-04-02 04:45:00,25.5,1.4,30.12,WNW,293,0.0,0.0,35,0.00,,,0.00,WUHU216HW,2013-04-02 08:45:00,
2013-04-02 04:50:00,25.5,1.4,30.12,West,270,0.0,0.0,35,0.00,,,0.00,WUHU216HW,2013-04-02 08:50:00,
2013-04-02 04:55:00,25.3,1.3,30.12,West,270,0.0,0.0,35,0.00,,,0.00,WUHU216HW,2013-04-02 08:55:00,
2013-04-02 05:00:00,25.1,0.5,30.12,West,270,0.0,0.0,34,0.00,,,0.00,WUHU216HW,2013-04-02 09:00:00,
2013-04-02 05:05:00,25.1,0.5,30.13,West,270,0.0,0.0,34,0.00,,,0.00,WUHU216HW,2013-04-02 09:05:00,
2013-04-02 05:10:00,25.1,0.5,30.13,West,270,0.0,0.0,34,0.00,,,0.00,WUHU216HW,2013-04-02 09:10:00,
2013-04-02 05:15:00,25.1,0.3,30.13,West,270,0.0,0.0,34,0.00,,,0.00,WUHU216HW,2013-04-02 09:15:00,
2013-04-02 05:20:00,24.9,0.3,30.13,WNW,293,0.0,0.0,34,0.00,,,0.00,WUHU216HW,2013-04-02 09:20:00,
2013-04-02 05:25:00,24.9,0.3,30.13,WNW,293,0.0,0.0,34,0.00,,,0.00,WUHU216HW,2013-04-02 09:25:00,
2013-04-02 05:30:00,24.8,-0.3,30.13,WNW,293,0.0,0.0,33,0.00,,,0.00,WUHU216HW,2013-04-02 09:30:00,
2013-04-02 05:35:00,24.6,-0.5,30.14,WNW,293,0.0,0.0,33,0.00,,,0.00,WUHU216HW,2013-04-02 09:35:00,
2013-04-02 05:40:00,24.4,-0.6,30.14,WNW,293,0.0,0.0,33,0.00,,,0.00,WUHU216HW,2013-04-02 09:40:00,
2013-04-02 05:45:00,24.4,0.0,30.14,WNW,293,0.0,0.0,33,0.00,,,0.00,WUHU216HW,2013-04-02 09:45:00,
2013-04-02 05:50:00,24.2,-0.2,30.15,WNW,293,0.0,0.0,34,0.00,,,0.00,WUHU216HW,2013-04-02 09:50:00,
2013-04-02 05:55:00,24.0,-0.4,30.15,NW,315,0.0,0.0,34,0.00,,,0.00,WUHU216HW,2013-04-02 09:55:00,
2013-04-02 06:00:00,23.9,0.2,30.15,West,270,0.0,0.0,34,0.00,,,0.00,WUHU216HW,2013-04-02 10:00:00,
2013-04-02 06:05:00,23.9,0.0,30.15,North,0,0.0,0.0,35,0.00,,,0.00,WUHU216HW,2013-04-02 10:05:00,
2013-04-02 06:10:00,23.9,0.0,30.15,WNW,293,0.0,0.0,35,0.00,,,0.00,WUHU216HW,2013-04-02 10:10:00,
2013-04-02 06:15:00,23.7,-0.1,30.15,WNW,293,0.0,0.0,35,0.00,,,0.00,WUHU216HW,2013-04-02 10:15:00,
2013-04-02 06:20:00,23.7,-0.1,30.15,WNW,293,0.0,0.0,35,0.00,,,0.00,WUHU216HW,2013-04-02 10:20:00,
2013-04-02 06:25:00,23.5,-0.2,30.15,WNW,293,0.0,0.0,35,0.00,,,0.00,WUHU216HW,2013-04-02 10:25:00,
2013-04-02 06:30:00,23.5,-0.2,30.16,WNW,293,0.0,0.0,35,0.00,,,0.00,WUHU216HW,2013-04-02 10:30:00,
2013-04-02 06:35:00,23.5,-0.2,30.16,WNW,293,0.0,0.0,35,0.00,,,0.00,WUHU216HW,2013-04-02 10:35:00,
2013-04-02 06:40:00,23.3,0.3,30.16,WNW,293,0.0,0.0,35,0.00,,,0.00,WUHU216HW,2013-04-02 10:40:00,
2013-04-02 06:45:00,23.3,0.1,30.17,West,270,0.0,0.0,36,0.00,,,0.00,WUHU216HW,2013-04-02 10:45:00,
2013-04-02 06:50:00,23.3,0.1,30.17,WNW,293,0.0,0.0,36,0.00,,,0.00,WUHU216HW,2013-04-02 10:50:00,
2013-04-02 06:55:00,23.3,0.1,30.18,West,270,0.0,0.0,36,0.00,,,0.00,WUHU216HW,2013-04-02 10:55:00,
2013-04-02 07:00:00,23.1,0.6,30.18,West,270,0.0,0.0,37,0.00,,,0.00,WUHU216HW,2013-04-02 11:00:00,
2013-04-02 07:05:00,23.1,0.6,30.18,West,270,0.0,0.0,37,0.00,,,0.00,WUHU216HW,2013-04-02 11:05:00,
2013-04-02 07:10:00,23.1,0.6,30.18,WNW,293,0.0,0.0,37,0.00,,,0.00,WUHU216HW,2013-04-02 11:10:00,
2013-04-02 07:15:00,23.1,1.2,30.18,West,270,0.0,0.0,38,0.00,,,0.00,WUHU216HW,2013-04-02 11:15:00,
2013-04-02 07:20:00,23.1,1.2,30.18,WNW,293,0.0,0.0,38,0.00,,,0.00,WUHU216HW,2013-04-02 11:20:00,
2013-04-02 07:25:00,23.1,1.2,30.19,WNW,293,0.0,0.0,38,0.00,,,0.00,WUHU216HW,2013-04-02 11:25:00,
2013-04-02 07:30:00,23.1,1.8,30.19,WNW,293,0.0,0.0,39,0.00,,,0.00,WUHU216HW,2013-04-02 11:30:00,
2013-04-02 07:35:00,23.1,1.8,30.19,WNW,293,0.0,0.0,39,0.00,,,0.00,WUHU216HW,2013-04-02 11:35:00,
2013-04-02 07:40:00,23.1,1.8,30.20,West,270,0.0,0.0,39,0.00,,,0.00,WUHU216HW,2013-04-02 11:40:00,
2013-04-02 07:45:00,23.1,2.4,30.20,West,270,0.0,0.0,40,0.00,,,0.00,WUHU216HW,2013-04-02 11:45:00,
2013-04-02 07:50:00,23.1,2.4,30.20,West,270,0.0,0.0,40,0.00,,,0.00,WUHU216HW,2013-04-02 11:50:00,
2013-04-02 07:55:00,23.1,2.4,30.20,WSW,248,0.0,0.0,40,0.00,,,0.00,WUHU216HW,2013-04-02 11:55:00,
2013-04-02 08:00:00,23.1,2.4,30.21,West,270,0.0,0.0,40,0.00,,,0.00,WUHU216HW,2013-04-02 12:00:00,
2013-04-02 08:05:00,23.1,2.4,30.21,West,270,0.0,0.0,40,0.00,,,0.00,WUHU216HW,2013-04-02 12:05:00,
2013-04-02 08:10:00,23.1,3.1,30.21,West,270,0.0,0.0,40,0.00,,,0.00,WUHU216HW,2013-04-02 12:10:00,
2013-04-02 08:15:00,23.3,3.1,30.22,West,270,0.0,0.0,41,0.00,,,0.00,WUHU216HW,2013-04-02 12:15:00,
2013-04-02 08:20:00,23.5,3.2,30.22,West,270,0.0,0.0,41,0.00,,,0.00,WUHU216HW,2013-04-02 12:20:00,
2013-04-02 08:25:00,23.7,3.4,30.22,West,270,0.0,0.0,41,0.00,,,0.00,WUHU216HW,2013-04-02 12:25:00,
2013-04-02 08:30:00,24.0,3.7,30.22,West,270,0.0,0.0,41,0.00,,,0.00,WUHU216HW,2013-04-02 12:30:00,
2013-04-02 08:35:00,24.2,3.9,30.22,WNW,293,0.0,0.0,41,0.00,,,0.00,WUHU216HW,2013-04-02 12:35:00,
2013-04-02 08:40:00,24.6,4.2,30.22,WNW,293,0.0,0.0,41,0.00,,,0.00,WUHU216HW,2013-04-02 12:40:00,
2013-04-02 08:45:00,24.9,4.5,30.22,WNW,293,0.0,0.0,41,0.00,,,0.00,WUHU216HW,2013-04-02 12:45:00,
2013-04-02 08:50:00,25.5,4.8,30.22,West,270,0.0,1.5,42,0.00,,,0.00,WUHU216HW,2013-04-02 12:50:00,
2013-04-02 08:55:00,25.7,5.7,30.22,WSW,248,0.0,1.5,42,0.00,,,0.00,WUHU216HW,2013-04-02 12:55:00,
2013-04-02 09:00:00,26.0,5.5,30.22,WNW,293,3.5,3.8,41,0.00,,,0.00,WUHU216HW,2013-04-02 13:00:00,
2013-04-02 09:05:00,26.4,6.0,30.22,WSW,248,0.0,3.8,41,0.00,,,0.00,WUHU216HW,2013-04-02 13:05:00,
2013-04-02 09:10:00,26.7,5.7,30.23,West,270,0.0,0.0,40,0.00,,,0.00,WUHU216HW,2013-04-02 13:10:00,
2013-04-02 09:15:00,27.1,6.0,30.22,WNW,293,0.0,0.0,40,0.00,,,0.00,WUHU216HW,2013-04-02 13:15:00,
2013-04-02 09:20:00,27.5,6.3,30.23,WNW,293,0.0,0.0,40,0.00,,,0.00,WUHU216HW,2013-04-02 13:20:00,
2013-04-02 09:25:00,28.2,6.2,30.23,WSW,248,3.1,3.1,39,0.00,,,0.00,WUHU216HW,2013-04-02 13:25:00,
2013-04-02 09:30:00,28.5,6.0,30.23,North,0,0.0,3.1,38,0.00,,,0.00,WUHU216HW,2013-04-02 13:30:00,
2013-04-02 09:35:00,29.1,6.5,30.23,West,270,3.1,3.1,37,0.00,,,0.00,WUHU216HW,2013-04-02 13:35:00,
2013-04-02 09:40:00,29.8,6.5,30.23,WNW,293,0.0,3.1,37,0.00,,,0.00,WUHU216HW,2013-04-02 13:40:00,
2013-04-02 09:45:00,30.3,6.4,30.23,West,270,0.0,0.0,36,0.00,,,0.00,WUHU216HW,2013-04-02 13:45:00,
2013-04-02 09:50:00,30.5,5.9,30.23,NNW,338,0.0,1.7,35,0.00,,,0.00,WUHU216HW,2013-04-02 13:50:00,
2013-04-02 09:55:00,31.1,6.4,30.23,SW,225,0.0,1.7,35,0.00,,,0.00,WUHU216HW,2013-04-02 13:55:00,
2013-04-02 10:00:00,31.4,6.1,30.23,WNW,293,0.0,2.4,34,0.00,,,0.00,WUHU216HW,2013-04-02 14:00:00,
2013-04-02 10:05:00,32.0,5.9,30.23,NNW,338,1.1,6.4,33,0.00,,,0.00,WUHU216HW,2013-04-02 14:05:00,
2013-04-02 10:10:00,32.1,5.5,30.24,SW,225,0.0,6.4,32,0.00,,,0.00,WUHU216HW,2013-04-02 14:10:00,
2013-04-02 10:15:00,32.3,4.8,30.24,SW,225,0.0,2.9,30,0.00,,,0.00,WUHU216HW,2013-04-02 14:15:00,
2013-04-02 10:20:00,32.7,5.3,30.23,NNW,338,0.0,4.2,31,0.00,,,0.00,WUHU216HW,2013-04-02 14:20:00,
2013-04-02 10:25:00,32.9,5.5,30.24,NW,315,0.0,4.2,31,0.00,,,0.00,WUHU216HW,2013-04-02 14:25:00,
2013-04-02 10:30:00,33.2,2.5,30.24,WNW,293,1.1,2.0,27,0.00,,,0.00,WUHU216HW,2013-04-02 14:30:00,
2013-04-02 10:35:00,33.4,4.5,30.24,WNW,293,0.0,3.5,29,0.00,,,0.00,WUHU216HW,2013-04-02 14:35:00,
2013-04-02 10:40:00,33.9,3.9,30.24,WNW,293,0.0,4.0,27,0.00,,,0.00,WUHU216HW,2013-04-02 14:40:00,
2013-04-02 10:45:00,34.1,3.3,30.24,WSW,248,4.0,4.0,26,0.00,,,0.00,WUHU216HW,2013-04-02 14:45:00,
2013-04-02 10:50:00,34.5,1.0,30.23,WSW,248,1.1,4.0,23,0.00,,,0.00,WUHU216HW,2013-04-02 14:50:00,
2013-04-02 10:55:00,35.0,0.6,30.23,NNW,338,3.3,3.3,23,0.00,,,0.00,WUHU216HW,2013-04-02 14:55:00,
2013-04-02 11:00:00,35.2,-3.0,30.23,NNW,338,1.1,3.3,19,0.00,,,0.00,WUHU216HW,2013-04-02 15:00:00,
2013-04-02 11:05:00,35.7,-0.4,30.23,WSW,248,3.8,4.0,21,0.00,,,0.00,WUHU216HW,2013-04-02 15:05:00,
2013-04-02 11:10:00,35.9,-2.4,30.23,West,270,0.0,4.0,19,0.00,,,0.00,WUHU216HW,2013-04-02 15:10:00,
2013-04-02 11:15:00,36.1,-2.3,30.24,West,270,0.0,2.2,19,0.00,,,0.00,WUHU216HW,2013-04-02 15:15:00,
2013-04-02 11:20:00,35.7,-2.6,30.24,WSW,248,4.9,4.9,19,0.00,,,0.00,WUHU216HW,2013-04-02 15:20:00,
2013-04-02 11:25:00,35.7,-2.6,30.24,SW,225,2.6,6.7,19,0.00,,,0.00,WUHU216HW,2013-04-02 15:25:00,
2013-04-02 11:30:00,36.3,-2.1,30.23,NW,315,2.6,6.7,19,0.00,,,0.00,WUHU216HW,2013-04-02 15:30:00,
2013-04-02 11:35:00,36.8,-1.7,30.23,WSW,248,1.7,4.4,19,0.00,,,0.00,WUHU216HW,2013-04-02 15:35:00,
2013-04-02 11:40:00,36.8,-1.7,30.23,WSW,248,3.1,3.8,19,0.00,,,0.00,WUHU216HW,2013-04-02 15:40:00,
2013-04-02 11:45:00,37.2,-1.3,30.23,WNW,293,0.0,6.2,19,0.00,,,0.00,WUHU216HW,2013-04-02 15:45:00,
2013-04-02 11:50:00,37.0,-1.5,30.23,SW,225,0.0,7.8,19,0.00,,,0.00,WUHU216HW,2013-04-02 15:50:00,
2013-04-02 11:56:00,37.0,-1.5,30.23,WNW,293,8.5,8.5,19,0.00,,,0.00,WUHU216HW,2013-04-02 15:56:00,
2013-04-02 12:00:00,37.5,-1.1,30.23,West,270,2.9,8.5,19,0.00,,,0.00,WUHU216HW,2013-04-02 16:00:00,
2013-04-02 12:06:00,38.3,-0.4,30.23,WNW,293,0.0,5.1,19,0.00,,,0.00,WUHU216HW,2013-04-02 16:06:00,
2013-04-02 12:11:00,38.3,-0.4,30.23,SW,225,0.0,4.0,19,0.00,,,0.00,WUHU216HW,2013-04-02 16:11:00,
2013-04-02 12:16:00,38.6,-0.2,30.23,WSW,248,4.0,4.9,19,0.00,,,0.00,WUHU216HW,2013-04-02 16:16:00,
2013-04-02 12:21:00,39.0,0.2,30.23,WNW,293,0.6,5.5,19,0.00,,,0.00,WUHU216HW,2013-04-02 16:21:00,
2013-04-02 12:26:00,39.5,0.6,30.23,SW,225,4.4,7.3,19,0.00,,,0.00,WUHU216HW,2013-04-02 16:26:00,
2013-04-02 12:31:00,40.2,1.2,30.22,WNW,293,8.2,8.2,19,0.00,,,0.00,WUHU216HW,2013-04-02 16:31:00,
2013-04-02 12:36:00,40.1,1.1,30.23,WNW,293,8.5,8.5,19,0.00,,,0.00,WUHU216HW,2013-04-02 16:36:00,
2013-04-02 12:41:00,39.5,0.6,30.22,West,270,2.2,8.5,19,0.00,,,0.00,WUHU216HW,2013-04-02 16:41:00,
2013-04-02 12:46:00,38.6,-0.2,30.22,West,270,2.6,8.5,19,0.00,,,0.00,WUHU216HW,2013-04-02 16:46:00,
2013-04-02 12:52:00,38.3,-0.4,30.22,SW,225,3.1,4.9,19,0.00,,,0.00,WUHU216HW,2013-04-02 16:52:00,
2013-04-02 12:57:00,39.2,0.3,30.22,WSW,248,0.0,4.9,19,0.00,,,0.00,WUHU216HW,2013-04-02 16:57:00,
2013-04-02 13:02:00,40.1,1.1,30.22,WNW,293,4.6,6.0,19,0.00,,,0.00,WUHU216HW,2013-04-02 17:02:00,
2013-04-02 13:07:00,40.4,1.3,30.22,SSW,203,0.0,8.0,19,0.00,,,0.00,WUHU216HW,2013-04-02 17:07:00,
2013-04-02 13:12:00,39.9,0.9,30.21,West,270,3.5,8.0,19,0.00,,,0.00,WUHU216HW,2013-04-02 17:12:00,
2013-04-02 13:17:00,39.3,0.4,30.21,West,270,1.3,5.8,19,0.00,,,0.00,WUHU216HW,2013-04-02 17:17:00,
2013-04-02 13:22:00,38.8,0.0,30.21,West,270,3.5,5.8,19,0.00,,,0.00,WUHU216HW,2013-04-02 17:22:00,
2013-04-02 13:27:00,38.6,-0.2,30.21,West,270,0.0,4.4,19,0.00,,,0.00,WUHU216HW,2013-04-02 17:27:00,
2013-04-02 13:32:00,38.3,-0.4,30.21,SSW,203,0.0,7.1,19,0.00,,,0.00,WUHU216HW,2013-04-02 17:32:00,
2013-04-02 13:37:00,38.6,-0.2,30.20,West,270,2.0,6.2,19,0.00,,,0.00,WUHU216HW,2013-04-02 17:37:00,
2013-04-02 13:42:00,39.7,0.7,30.21,SW,225,1.5,6.7,19,0.00,,,0.00,WUHU216HW,2013-04-02 17:42:00,
2013-04-02 13:47:00,39.9,0.9,30.20,West,270,3.1,6.7,19,0.00,,,0.00,WUHU216HW,2013-04-02 17:47:00,
2013-04-02 13:52:00,39.5,0.6,30.20,West,270,3.5,5.3,19,0.00,,,0.00,WUHU216HW,2013-04-02 17:52:00,
2013-04-02 13:57:00,39.5,0.6,30.20,WSW,248,8.2,8.2,19,0.00,,,0.00,WUHU216HW,2013-04-02 17:57:00,
2013-04-02 14:02:00,39.9,0.9,30.19,West,270,3.3,8.2,19,0.00,,,0.00,WUHU216HW,2013-04-02 18:02:00,
2013-04-02 14:07:00,41.0,1.8,30.19,SW,225,5.5,8.2,19,0.00,,,0.00,WUHU216HW,2013-04-02 18:07:00,
2013-04-02 14:12:00,41.1,1.9,30.19,WNW,293,5.5,5.5,19,0.00,,,0.00,WUHU216HW,2013-04-02 18:12:00,
2013-04-02 14:18:00,41.7,2.4,30.19,SW,225,3.1,6.0,19,0.00,,,0.00,WUHU216HW,2013-04-02 18:18:00,
2013-04-02 14:23:00,41.9,2.6,30.19,WSW,248,2.6,6.4,19,0.00,,,0.00,WUHU216HW,2013-04-02 18:23:00,
2013-04-02 14:28:00,42.4,3.0,30.19,WSW,248,4.2,6.4,19,0.00,,,0.00,WUHU216HW,2013-04-02 18:28:00,
2013-04-02 14:33:00,42.9,3.4,30.19,SW,225,4.9,6.2,19,0.00,,,0.00,WUHU216HW,2013-04-02 18:33:00,
2013-04-02 14:38:00,43.5,3.9,30.19,WSW,248,6.0,6.0,19,0.00,,,0.00,WUHU216HW,2013-04-02 18:38:00,
2013-04-02 14:43:00,43.3,3.7,30.18,WSW,248,0.0,6.0,19,0.00,,,0.00,WUHU216HW,2013-04-02 18:43:00,
2013-04-02 14:48:00,44.7,4.9,30.18,SW,225,4.9,6.7,19,0.00,,,0.00,WUHU216HW,2013-04-02 18:48:00,
2013-04-02 14:53:00,45.6,5.6,30.18,West,270,0.0,6.7,19,0.00,,,0.00,WUHU216HW,2013-04-02 18:53:00,
2013-04-02 14:58:00,46.0,6.0,30.17,West,270,6.9,8.2,19,0.00,,,0.00,WUHU216HW,2013-04-02 18:58:00,
2013-04-02 15:03:00,44.2,4.5,30.17,WSW,248,2.6,8.2,19,0.00,,,0.00,WUHU216HW,2013-04-02 19:03:00,
2013-04-02 15:08:00,43.3,3.7,30.17,WSW,248,2.6,4.4,19,0.00,,,0.00,WUHU216HW,2013-04-02 19:08:00,
2013-04-02 15:13:00,42.9,3.4,30.17,SSW,203,0.0,4.2,19,0.00,,,0.00,WUHU216HW,2013-04-02 19:13:00,
2013-04-02 15:18:00,43.1,3.6,30.17,West,270,2.6,8.2,19,0.00,,,0.00,WUHU216HW,2013-04-02 19:18:00,
2013-04-02 15:23:00,43.5,3.9,30.17,WNW,293,2.9,8.2,19,0.00,,,0.00,WUHU216HW,2013-04-02 19:23:00,
2013-04-02 15:28:00,44.0,4.3,30.16,WSW,248,0.0,5.8,19,0.00,,,0.00,WUHU216HW,2013-04-02 19:28:00,
2013-04-02 15:34:00,45.3,5.4,30.16,SW,225,1.1,5.3,19,0.00,,,0.00,WUHU216HW,2013-04-02 19:34:00,
2013-04-02 15:39:00,45.5,5.6,30.16,WSW,248,2.0,5.3,19,0.00,,,0.00,WUHU216HW,2013-04-02 19:39:00,
2013-04-02 15:44:00,45.3,5.4,30.16,West,270,0.0,4.4,19,0.00,,,0.00,WUHU216HW,2013-04-02 19:44:00,
2013-04-02 15:49:00,46.0,6.0,30.15,WSW,248,0.0,4.4,19,0.00,,,0.00,WUHU216HW,2013-04-02 19:49:00,
2013-04-02 15:54:00,45.5,5.6,30.16,SW,225,7.1,7.1,19,0.00,,,0.00,WUHU216HW,2013-04-02 19:54:00,
2013-04-02 15:59:00,44.6,4.8,30.16,WSW,248,2.4,7.1,19,0.00,,,0.00,WUHU216HW,2013-04-02 19:59:00,
2013-04-02 16:04:00,43.5,3.9,30.16,WSW,248,3.3,6.2,19,0.00,,,0.00,WUHU216HW,2013-04-02 20:04:00,
2013-04-02 16:09:00,43.5,3.9,30.15,SSW,203,0.0,6.2,19,0.00,,,0.00,WUHU216HW,2013-04-02 20:09:00,
2013-04-02 16:14:00,45.5,5.6,30.15,WNW,293,4.6,6.4,19,0.00,,,0.00,WUHU216HW,2013-04-02 20:14:00,
2013-04-02 16:19:00,46.7,6.5,30.16,North,0,0.0,6.4,19,0.00,,,0.00,WUHU216HW,2013-04-02 20:19:00,
2013-04-02 16:24:00,46.4,6.3,30.15,WSW,248,1.7,7.6,19,0.00,,,0.00,WUHU216HW,2013-04-02 20:24:00,
2013-04-02 16:29:00,46.0,6.0,30.15,NW,315,3.3,7.6,19,0.00,,,0.00,WUHU216HW,2013-04-02 20:29:00,
2013-04-02 16:34:00,46.5,6.4,30.15,West,270,4.4,6.0,19,0.00,,,0.00,WUHU216HW,2013-04-02 20:34:00,
2013-04-02 16:39:00,46.5,6.4,30.15,WSW,248,5.8,5.8,19,0.00,,,0.00,WUHU216HW,2013-04-02 20:39:00,
2013-04-02 16:44:00,47.1,6.9,30.15,West,270,2.0,8.9,19,0.00,,,0.00,WUHU216HW,2013-04-02 20:44:00,
2013-04-02 16:49:00,47.1,6.9,30.15,WSW,248,2.9,8.9,19,0.00,,,0.00,WUHU216HW,2013-04-02 20:49:00,
2013-04-02 16:54:00,46.7,6.5,30.15,WSW,248,0.0,4.6,19,0.00,,,0.00,WUHU216HW,2013-04-02 20:54:00,
2013-04-02 16:59:00,47.1,6.9,30.15,West,270,3.8,4.6,19,0.00,,,0.00,WUHU216HW,2013-04-02 20:59:00,
2013-04-02 17:04:00,47.4,7.1,30.15,WNW,293,1.1,4.4,19,0.00,,,0.00,WUHU216HW,2013-04-02 21:04:00,
2013-04-02 17:09:00,47.3,7.0,30.15,WSW,248,0.0,7.6,19,0.00,,,0.00,WUHU216HW,2013-04-02 21:09:00,
2013-04-02 17:14:00,47.4,7.1,30.15,WNW,293,4.2,7.6,19,0.00,,,0.00,WUHU216HW,2013-04-02 21:14:00,
2013-04-02 17:19:00,46.9,6.7,30.15,West,270,2.4,6.9,19,0.00,,,0.00,WUHU216HW,2013-04-02 21:19:00,
2013-04-02 17:24:00,46.7,6.5,30.15,NNW,338,5.3,6.0,19,0.00,,,0.00,WUHU216HW,2013-04-02 21:24:00,
2013-04-02 17:30:00,46.9,6.7,30.15,West,270,2.6,5.3,19,0.00,,,0.00,WUHU216HW,2013-04-02 21:30:00,
2013-04-02 17:35:00,46.0,6.0,30.15,WSW,248,0.0,6.9,19,0.00,,,0.00,WUHU216HW,2013-04-02 21:35:00,
2013-04-02 17:40:00,46.0,6.0,30.15,NW,315,4.0,6.9,19,0.00,,,0.00,WUHU216HW,2013-04-02 21:40:00,
2013-04-02 17:45:00,46.5,6.4,30.15,West,270,2.6,6.4,19,0.00,,,0.00,WUHU216HW,2013-04-02 21:45:00,
2013-04-02 17:50:00,46.5,6.4,30.15,West,270,2.9,6.4,19,0.00,,,0.00,WUHU216HW,2013-04-02 21:50:00,
2013-04-02 17:55:00,46.0,6.0,30.15,WSW,248,3.1,6.4,19,0.00,,,0.00,WUHU216HW,2013-04-02 21:55:00,
2013-04-02 18:00:00,46.0,6.0,30.16,WSW,248,0.0,8.0,19,0.00,,,0.00,WUHU216HW,2013-04-02 22:00:00,
2013-04-02 18:05:00,46.5,6.4,30.16,WSW,248,2.6,8.0,19,0.00,,,0.00,WUHU216HW,2013-04-02 22:05:00,
2013-04-02 18:10:00,46.5,6.4,30.16,WNW,293,9.8,9.8,19,0.00,,,0.00,WUHU216HW,2013-04-02 22:10:00,
2013-04-02 18:15:00,46.2,6.1,30.16,SW,225,0.0,9.8,19,0.00,,,0.00,WUHU216HW,2013-04-02 22:15:00,
2013-04-02 18:20:00,46.0,6.0,30.15,West,270,0.0,4.4,19,0.00,,,0.00,WUHU216HW,2013-04-02 22:20:00,
2013-04-02 18:25:00,45.6,5.6,30.16,NW,315,6.7,6.7,19,0.00,,,0.00,WUHU216HW,2013-04-02 22:25:00,
2013-04-02 18:30:00,44.9,5.1,30.16,WNW,293,3.5,6.7,19,0.00,,,0.00,WUHU216HW,2013-04-02 22:30:00,
2013-04-02 18:35:00,44.0,4.3,30.16,WSW,248,3.1,4.2,19,0.00,,,0.00,WUHU216HW,2013-04-02 22:35:00,
2013-04-02 18:40:00,43.3,3.7,30.16,SW,225,1.7,4.2,19,0.00,,,0.00,WUHU216HW,2013-04-02 22:40:00,
2013-04-02 18:45:00,42.9,3.4,30.16,WNW,293,6.2,6.2,19,0.00,,,0.00,WUHU216HW,2013-04-02 22:45:00,
2013-04-02 18:50:00,42.9,3.4,30.16,WSW,248,2.2,6.2,19,0.00,,,0.00,WUHU216HW,2013-04-02 22:50:00,
2013-04-02 18:55:00,42.8,3.3,30.16,WNW,293,8.2,8.2,19,0.00,,,0.00,WUHU216HW,2013-04-02 22:55:00,
2013-04-02 19:01:00,42.6,3.1,30.16,West,270,3.5,8.2,19,0.00,,,0.00,WUHU216HW,2013-04-02 23:01:00,
2013-04-02 19:06:00,42.8,3.3,30.17,WNW,293,7.1,9.8,19,0.00,,,0.00,WUHU216HW,2013-04-02 23:06:00,
2013-04-02 19:11:00,42.2,2.8,30.17,WSW,248,2.9,9.8,19,0.00,,,0.00,WUHU216HW,2013-04-02 23:11:00,
2013-04-02 19:16:00,41.9,2.6,30.17,WSW,248,4.4,7.6,19,0.00,,,0.00,WUHU216HW,2013-04-02 23:16:00,
2013-04-02 19:21:00,41.3,2.1,30.17,West,270,2.9,8.5,19,0.00,,,0.00,WUHU216HW,2013-04-02 23:21:00,
2013-04-02 19:27:00,41.1,1.9,30.17,West,270,0.0,4.4,19,0.00,,,0.00,WUHU216HW,2013-04-02 23:27:00,
2013-04-02 19:32:00,40.4,1.3,30.17,WNW,293,0.0,11.1,19,0.00,,,0.00,WUHU216HW,2013-04-02 23:32:00,
2013-04-02 19:37:00,40.1,1.1,30.17,West,270,0.0,11.1,19,0.00,,,0.00,WUHU216HW,2013-04-02 23:37:00,
2013-04-02 19:42:00,39.9,0.9,30.17,West,270,0.0,2.0,19,0.00,,,0.00,WUHU216HW,2013-04-02 23:42:00,
2013-04-02 19:47:00,39.3,0.4,30.17,WNW,293,0.0,1.7,19,0.00,,,0.00,WUHU216HW,2013-04-02 23:47:00,
2013-04-02 19:52:00,39.2,0.3,30.17,WNW,293,0.0,1.7,19,0.00,,,0.00,WUHU216HW,2013-04-02 23:52:00,
2013-04-02 19:57:00,38.8,0.0,30.17,WNW,293,0.0,0.0,19,0.00,,,0.00,WUHU216HW,2013-04-02 23:57:00,
2013-04-02 20:02:00,38.4,-0.3,30.17,WNW,293,0.0,3.3,19,0.00,,,0.00,WUHU216HW,2013-04-03 00:02:00,
2013-04-02 20:07:00,38.1,-0.6,30.18,WNW,293,0.0,3.3,19,0.00,,,0.00,WUHU216HW,2013-04-03 00:07:00,
2013-04-02 20:12:00,37.7,-0.9,30.18,West,270,0.0,2.6,19,0.00,,,0.00,WUHU216HW,2013-04-03 00:12:00,
2013-04-02 20:17:00,37.5,-1.1,30.18,WNW,293,1.1,2.4,19,0.00,,,0.00,WUHU216HW,2013-04-03 00:17:00,
2013-04-02 20:22:00,37.4,-1.2,30.18,NW,315,0.0,2.4,19,0.00,,,0.00,WUHU216HW,2013-04-03 00:22:00,
2013-04-02 20:27:00,37.0,-1.5,30.19,NW,315,0.0,0.0,19,0.00,,,0.00,WUHU216HW,2013-04-03 00:27:00,
2013-04-02 20:32:00,36.8,-1.7,30.19,NW,315,0.0,0.0,19,0.00,,,0.00,WUHU216HW,2013-04-03 00:32:00,
2013-04-02 20:38:00,36.6,-1.8,30.19,NW,315,0.0,0.0,19,0.00,,,0.00,WUHU216HW,2013-04-03 00:38:00,
2013-04-02 20:43:00,36.5,-1.9,30.19,NNW,338,0.0,0.0,19,0.00,,,0.00,WUHU216HW,2013-04-03 00:43:00,
2013-04-02 20:48:00,36.3,-2.1,30.20,NNW,338,0.0,0.0,19,0.00,,,0.00,WUHU216HW,2013-04-03 00:48:00,
2013-04-02 20:53:00,36.1,-2.3,30.20,WNW,293,0.0,0.0,19,0.00,,,0.00,WUHU216HW,2013-04-03 00:53:00,
2013-04-02 20:58:00,35.9,-2.4,30.20,NW,315,0.0,0.0,19,0.00,,,0.00,WUHU216HW,2013-04-03 00:58:00,
2013-04-02 21:03:00,35.7,-2.6,30.20,NW,315,0.0,0.0,19,0.00,,,0.00,WUHU216HW,2013-04-03 01:03:00,
2013-04-02 21:09:00,35.6,-2.7,30.20,NW,315,0.0,0.0,19,0.00,,,0.00,WUHU216HW,2013-04-03 01:09:00,
2013-04-02 21:14:00,35.4,-2.8,30.20,NW,315,0.0,0.0,19,0.00,,,0.00,WUHU216HW,2013-04-03 01:14:00,
2013-04-02 21:19:00,35.2,-3.0,30.20,NW,315,0.0,0.0,19,0.00,,,0.00,WUHU216HW,2013-04-03 01:19:00,
2013-04-02 21:24:00,35.2,-3.0,30.21,NW,315,0.0,0.0,19,0.00,,,0.00,WUHU216HW,2013-04-03 01:24:00,
2013-04-02 21:29:00,35.0,-3.2,30.21,NW,315,0.0,0.0,19,0.00,,,0.00,WUHU216HW,2013-04-03 01:29:00,
2013-04-02 21:34:00,34.8,-3.3,30.21,NW,315,0.0,0.0,19,0.00,,,0.00,WUHU216HW,2013-04-03 01:34:00,
2013-04-02 21:39:00,34.7,-3.4,30.21,WNW,293,0.0,0.0,19,0.00,,,0.00,WUHU216HW,2013-04-03 01:39:00,
2013-04-02 21:44:00,34.7,-3.4,30.21,WNW,293,0.0,0.0,19,0.00,,,0.00,WUHU216HW,2013-04-03 01:44:00,
2013-04-02 21:49:00,34.5,-3.6,30.21,WNW,293,0.0,0.0,19,0.00,,,0.00,WUHU216HW,2013-04-03 01:49:00,
2013-04-02 21:54:00,34.3,-3.7,30.22,WNW,293,0.0,0.0,19,0.00,,,0.00,WUHU216HW,2013-04-03 01:54:00,
2013-04-02 21:59:00,34.1,-3.9,30.22,WNW,293,0.0,0.0,19,0.00,,,0.00,WUHU216HW,2013-04-03 01:59:00,
2013-04-02 22:04:00,34.1,-3.9,30.22,WNW,293,0.0,0.0,19,0.00,,,0.00,WUHU216HW,2013-04-03 02:04:00,
2013-04-02 22:09:00,33.9,-4.1,30.22,WNW,293,0.0,0.0,19,0.00,,,0.00,WUHU216HW,2013-04-03 02:09:00,
2013-04-02 22:14:00,33.9,-4.1,30.22,WNW,293,0.0,0.0,19,0.00,,,0.00,WUHU216HW,2013-04-03 02:14:00,
2013-04-02 22:19:00,33.9,-4.1,30.22,WNW,293,0.0,0.0,19,0.00,,,0.00,WUHU216HW,2013-04-03 02:19:00,
2013-04-02 22:24:00,33.8,-4.2,30.22,WNW,293,0.0,0.0,19,0.00,,,0.00,WUHU216HW,2013-04-03 02:24:00,
2013-04-02 22:29:00,33.4,-4.5,30.21,WNW,293,0.0,0.0,19,0.00,,,0.00,WUHU216HW,2013-04-03 02:29:00,
2013-04-02 22:34:00,33.4,-4.5,30.21,WNW,293,0.0,0.0,19,0.00,,,0.00,WUHU216HW,2013-04-03 02:34:00,
2013-04-02 22:39:00,33.4,-4.5,30.21,WNW,293,0.0,0.0,19,0.00,,,0.00,WUHU216HW,2013-04-03 02:39:00,
2013-04-02 22:44:00,33.2,-4.7,30.22,WNW,293,0.0,0.0,19,0.00,,,0.00,WUHU216HW,2013-04-03 02:44:00,
2013-04-02 22:49:00,32.9,-4.9,30.22,WNW,293,0.0,0.0,19,0.00,,,0.00,WUHU216HW,2013-04-03 02:49:00,
2013-04-02 22:54:00,32.7,-5.1,30.22,WNW,293,0.0,0.0,19,0.00,,,0.00,WUHU216HW,2013-04-03 02:54:00,
2013-04-02 22:59:00,32.7,-5.1,30.22,WNW,293,0.0,0.0,19,0.00,,,0.00,WUHU216HW,2013-04-03 02:59:00,
2013-04-02 23:04:00,32.7,-5.1,30.22,WNW,293,0.0,0.0,19,0.00,,,0.00,WUHU216HW,2013-04-03 03:04:00,
2013-04-02 23:09:00,32.7,-5.1,30.22,WNW,293,0.0,0.0,19,0.00,,,0.00,WUHU216HW,2013-04-03 03:09:00,
2013-04-02 23:15:00,32.7,-5.1,30.23,WNW,293,0.0,0.0,19,0.00,,,0.00,WUHU216HW,2013-04-03 03:15:00,
2013-04-02 23:20:00,32.5,-5.2,30.22,West,270,0.0,0.0,19,0.00,,,0.00,WUHU216HW,2013-04-03 03:20:00,
2013-04-02 23:25:00,32.5,-5.2,30.23,West,270,0.0,0.0,19,0.00,,,0.00,WUHU216HW,2013-04-03 03:25:00,
2013-04-02 23:30:00,32.3,-5.4,30.23,West,270,0.0,0.0,19,0.00,,,0.00,WUHU216HW,2013-04-03 03:30:00,
2013-04-02 23:35:00,32.3,-5.4,30.22,SW,225,0.0,0.0,19,0.00,,,0.00,WUHU216HW,2013-04-03 03:35:00,
2013-04-02 23:40:00,32.3,-5.4,30.23,SW,225,0.0,0.0,19,0.00,,,0.00,WUHU216HW,2013-04-03 03:40:00,
2013-04-02 23:45:00,32.1,-5.6,30.23,SW,225,0.0,0.0,19,0.00,,,0.00,WUHU216HW,2013-04-03 03:45:00,
2013-04-02 23:50:00,32.1,-5.6,30.23,SW,225,0.0,0.0,19,0.00,,,0.00,WUHU216HW,2013-04-03 03:50:00,
2013-04-02 23:55:00,32.1,-5.6,30.23,SW,225,0.0,0.0,19,0.00,,,0.00,WUHU216HW,2013-04-03 03:55:00,